User: anonymous   Login
Location: Axtheid
(49.6213°N, 11.8205°E)
Time: 00:17:22
(UTC+00:00)
Language:

Cosmos 1340 - Orbit

View from above orbital plane
View from above orbital plane
View from above satellite
View from above satellite

Ground track
Ground track

The orbit data is extracted from the following two-line orbital elements,

1 13067U 82013A   21332.52694369  .00001659  00000-0  71802-4 0  9999
2 13067  81.1874  36.0610 0004282  97.5988 262.5730 15.21878913174468
Epoch (UTC): 28 November 2021 12:38:47
Eccentricity: 0.0004282
inclination: 81.1874°
perigee height: 497 km
apogee height: 503 km
right ascension of ascending node: 36.0610°
argument of perigee: 97.5988°
revolutions per day: 15.21878913
mean anomaly at epoch: 262.5730°
orbit number at epoch: 17446

The dashed part of the orbit path shows where the satellite is in the earth's shadow,  

DLR